Regional Weather Roundup
Issued by NWS Cleveland, OH

Home | Current Version | Previous Version | Text Only | Print | Product List | Glossary Off
Versions: 1 2 3 4 5 6 7 8 9 10 11 12 13 14 15 16 17 18 19 20 21 22 23 24 25 26 27 28 29 30 31 32 33 34 35 36 37 38 39 40 41 42 43 44 45 46 47 48 49 50

000
ASUS41 KCLE 040810
RWRCLE
OHIO REGIONAL WEATHER ROUNDUP
NATIONAL WEATHER SERVICE CLEVELAND, OH
400 AM EDT SAT JUL 04 2015

NOTE: "FAIR" INDICATES FEW OR NO CLOUDS BELOW 12,000 FEET WITH NO
SIGNIFICANT WEATHER AND/OR OBSTRUCTIONS TO VISIBILITY.

OHZ001>008-015>018-024>027-034-035-043-044-040900-
   NORTHWEST OHIO

CITY           SKY/WX    TMP DP  RH WIND       PRES   REMARKS
DEFIANCE       CLEAR     55  53  93 CALM      29.94F
FINDLAY        CLEAR     56  52  86 CALM      29.92S
TOLEDO EXPRESS CLEAR     55  51  86 CALM      29.93F
TOLEDO EXEC    CLEAR     57  53  86 CALM      29.94S
LIMA           CLEAR     55  53  93 CALM      29.94S
$$

OHZ009>014-019>023-028>033-038-089-040900-
   NORTHEAST OHIO

CITY           SKY/WX    TMP DP  RH WIND       PRES   REMARKS
CLE-HOPKINS    CLEAR     57  52  83 W3        29.92S
CLE-LAKEFRONT  CLEAR     65  53  65 CALM      29.90S
CUY CO. ARPT   NOT AVBL
LORAIN-ELYRIA  CLEAR     56  54  93 CALM      29.92S
ASHTABULA      PTCLDY    56  53  90 CALM      29.91S
AKRON-CANTON   MOCLDY    62  53  72 N6        29.90R
WOOSTER        MOCLDY    56  54  93 N6        29.91S
MANSFIELD      PTCLDY    55  54  96 NW6       29.92F
YOUNGSTOWN     CLOUDY    62  57  83 NW5       29.89R
$$

OHZ042-051>053-060>062-070>072-077>081-040900-
  SOUTHWEST OHIO

CITY           SKY/WX    TMP DP  RH WIND       PRES   REMARKS
CINC-COVINGTON CLOUDY    67  64  90 N5        29.92S
CINC-LUNKEN    CLOUDY    67  65  93 NE3       29.92R
HAMILTON       MOCLDY    65  64  97 CALM      29.93S FOG
DAYTON         PTCLDY    63  59  87 NW3       29.94S
WRIGHT-PAT AFB CLEAR     64  61  89 W2        29.92S
DAYTON GENERAL CLEAR     63  62  97 NE3       29.92S FOG
WILMINGTON     PTCLDY    63  61  93 N5        29.92S FOG
$$

OHZ036-037-039>041-045>050-054>059-063>069-073>076-082>088-040900-
  CENTRAL AND SOUTHEAST OHIO

CITY           SKY/WX    TMP DP  RH WIND       PRES   REMARKS
COLUMBUS       MOCLDY    62  59  90 CALM      29.90S
OSU AIRPORT    PTCLDY    60  56  86 N6        29.92R
BOLTON FIELD   MOCLDY    60  58  95 NW6       29.92S
RICKENBACK AFB MOCLDY    62  60  93 NW6       29.90S
NEWARK         MOCLDY    62  59  90 CALM      29.89S
MARION         CLEAR     57  54  89 NW3       29.92F
LANCASTER      FOG       60  59  96 CALM      29.90S VSB 1/4
ZANESVILLE     NOT AVBL
NEW PHILLY     MOCLDY    62  61  96 CALM      29.89S FOG
$$



USA.gov is the U.S. government's official web portal to all federal, state and local government web resources and services.